Year,Month,Day,Hour,Minute,Value (Times are PST for temperature in C)
2014,09,27,00,00,11.30
2014,09,27,00,01,11.30
2014,09,27,00,02,11.30
2014,09,27,00,03,11.30
2014,09,27,00,04,11.20
2014,09,27,00,05,11.20
2014,09,27,00,06,11.20
2014,09,27,00,07,11.20
2014,09,27,00,08,11.20
2014,09,27,00,09,11.20
2014,09,27,00,10,11.20
2014,09,27,00,11,11.20
2014,09,27,00,12,11.20
2014,09,27,00,13,11.20
2014,09,27,00,14,11.20
2014,09,27,00,15,11.20
2014,09,27,00,16,11.20
2014,09,27,00,17,11.20
2014,09,27,00,18,11.20
2014,09,27,00,19,11.20
2014,09,27,00,20,11.20
2014,09,27,00,21,11.20
2014,09,27,00,22,11.20
2014,09,27,00,23,11.20
2014,09,27,00,24,11.20
2014,09,27,00,25,11.10
2014,09,27,00,26,11.10
2014,09,27,00,27,11.10
2014,09,27,00,28,11.10
2014,09,27,00,29,11.10
2014,09,27,00,30,11.10
2014,09,27,00,31,11.10
2014,09,27,00,32,11.10
2014,09,27,00,33,11.10
2014,09,27,00,34,11.00
2014,09,27,00,35,11.00
2014,09,27,00,36,11.00
2014,09,27,00,37,11.00
2014,09,27,00,38,11.00
2014,09,27,00,39,11.00
2014,09,27,00,40,10.90
2014,09,27,00,41,10.90
2014,09,27,00,42,10.90
2014,09,27,00,43,10.90
2014,09,27,00,44,10.90
2014,09,27,00,45,10.80
2014,09,27,00,46,10.80
2014,09,27,00,47,10.80
2014,09,27,00,48,10.80
2014,09,27,00,49,10.80
2014,09,27,00,50,10.80
2014,09,27,00,51,10.80
2014,09,27,00,52,10.70
2014,09,27,00,53,10.70
2014,09,27,00,54,10.70
2014,09,27,00,55,10.70
2014,09,27,00,56,10.70
2014,09,27,00,57,10.70
2014,09,27,00,58,10.70
2014,09,27,00,59,10.70
2014,09,27,01,00,10.70
2014,09,27,01,01,10.70
2014,09,27,01,02,10.70
2014,09,27,01,03,10.70
2014,09,27,01,04,10.70
2014,09,27,01,05,10.70
2014,09,27,01,06,10.70
2014,09,27,01,07,10.70
2014,09,27,01,08,10.70
2014,09,27,01,09,10.70
2014,09,27,01,10,10.70
2014,09,27,01,11,10.70
2014,09,27,01,12,10.70
2014,09,27,01,13,10.70
2014,09,27,01,14,10.70
2014,09,27,01,15,10.70
2014,09,27,01,16,10.70
2014,09,27,01,17,10.70
2014,09,27,01,18,10.80
2014,09,27,01,19,10.80
2014,09,27,01,20,10.80
2014,09,27,01,21,10.80
2014,09,27,01,22,10.80
2014,09,27,01,23,10.80
2014,09,27,01,24,10.80
2014,09,27,01,25,10.80
2014,09,27,01,26,10.80
2014,09,27,01,27,10.80
2014,09,27,01,28,10.80
2014,09,27,01,29,10.80
2014,09,27,01,30,10.80
2014,09,27,01,31,10.80
2014,09,27,01,32,10.80
2014,09,27,01,33,10.80
2014,09,27,01,34,10.80
2014,09,27,01,35,10.80
2014,09,27,01,36,10.80
2014,09,27,01,37,10.80
2014,09,27,01,38,10.80
2014,09,27,01,39,10.80
2014,09,27,01,40,10.80
2014,09,27,01,41,10.80
2014,09,27,01,42,10.80
2014,09,27,01,43,10.80
2014,09,27,01,44,10.80
2014,09,27,01,45,10.80
2014,09,27,01,46,10.80
2014,09,27,01,47,10.80
2014,09,27,01,48,10.80
2014,09,27,01,49,10.80
2014,09,27,01,50,10.80
2014,09,27,01,51,10.80
2014,09,27,01,52,10.80
2014,09,27,01,53,10.80
2014,09,27,01,54,10.80
2014,09,27,01,55,10.80
2014,09,27,01,56,10.90
2014,09,27,01,57,10.90
2014,09,27,01,58,10.90
2014,09,27,01,59,10.90
2014,09,27,02,00,10.90
2014,09,27,02,01,10.90
2014,09,27,02,02,10.90
2014,09,27,02,03,10.90
2014,09,27,02,04,10.90
2014,09,27,02,05,10.90
2014,09,27,02,06,11.00
2014,09,27,02,07,11.00
2014,09,27,02,08,11.00
2014,09,27,02,09,11.00
2014,09,27,02,10,11.00
2014,09,27,02,11,11.00
2014,09,27,02,12,11.00
2014,09,27,02,13,11.00
2014,09,27,02,14,11.00
2014,09,27,02,15,11.00
2014,09,27,02,16,11.00
2014,09,27,02,17,11.10
2014,09,27,02,18,11.10
2014,09,27,02,19,11.10
2014,09,27,02,20,11.10
2014,09,27,02,21,11.10
2014,09,27,02,22,11.10
2014,09,27,02,23,11.10
2014,09,27,02,24,11.20
2014,09,27,02,25,11.20
2014,09,27,02,26,11.20
2014,09,27,02,27,11.20
2014,09,27,02,28,11.20
2014,09,27,02,29,11.20
2014,09,27,02,30,11.20
2014,09,27,02,31,11.20
2014,09,27,02,32,11.20
2014,09,27,02,33,11.20
2014,09,27,02,34,11.20
2014,09,27,02,35,11.20
2014,09,27,02,36,11.20
2014,09,27,02,37,11.20
2014,09,27,02,38,11.20
2014,09,27,02,39,11.20
2014,09,27,02,40,11.20
2014,09,27,02,41,11.20
2014,09,27,02,42,11.20
2014,09,27,02,43,11.20
2014,09,27,02,44,11.20
2014,09,27,02,45,11.20
2014,09,27,02,46,11.20
2014,09,27,02,47,11.20
2014,09,27,02,48,11.20
2014,09,27,02,49,11.20
2014,09,27,02,50,11.20
2014,09,27,02,51,11.20
2014,09,27,02,52,11.20
2014,09,27,02,53,11.20
2014,09,27,02,54,11.20
2014,09,27,02,55,11.20
2014,09,27,02,56,11.20
2014,09,27,02,57,11.20
2014,09,27,02,58,11.20
2014,09,27,02,59,11.20
2014,09,27,03,00,11.20
2014,09,27,03,01,11.20
2014,09,27,03,02,11.30
2014,09,27,03,03,11.30
2014,09,27,03,04,11.30
2014,09,27,03,05,11.30
2014,09,27,03,06,11.30
2014,09,27,03,07,11.30
2014,09,27,03,08,11.30
2014,09,27,03,09,11.30
2014,09,27,03,10,11.20
2014,09,27,03,11,11.20
2014,09,27,03,12,11.20
2014,09,27,03,13,11.20
2014,09,27,03,14,11.20
2014,09,27,03,15,11.20
2014,09,27,03,16,11.20
2014,09,27,03,17,11.20
2014,09,27,03,18,11.20
2014,09,27,03,19,11.20
2014,09,27,03,20,11.20
2014,09,27,03,21,11.20
2014,09,27,03,22,11.20
2014,09,27,03,23,11.20
2014,09,27,03,24,11.20
2014,09,27,03,25,11.20
2014,09,27,03,26,11.20
2014,09,27,03,27,11.20
2014,09,27,03,28,11.20
2014,09,27,03,29,11.20
2014,09,27,03,30,11.20
2014,09,27,03,31,11.20
2014,09,27,03,32,11.20
2014,09,27,03,33,11.20
2014,09,27,03,34,11.20
2014,09,27,03,35,11.20
2014,09,27,03,36,11.20
2014,09,27,03,37,11.20
2014,09,27,03,38,11.20
2014,09,27,03,39,11.20
2014,09,27,03,40,11.20
2014,09,27,03,41,11.20
2014,09,27,03,42,11.20
2014,09,27,03,43,11.20
2014,09,27,03,44,11.20
2014,09,27,03,45,11.20
2014,09,27,03,46,11.20
2014,09,27,03,47,11.20
2014,09,27,03,48,11.20
2014,09,27,03,49,11.20
2014,09,27,03,50,11.20
2014,09,27,03,51,11.20
2014,09,27,03,52,11.20
2014,09,27,03,53,11.20
2014,09,27,03,54,11.20
2014,09,27,03,55,11.20
2014,09,27,03,56,11.20
2014,09,27,03,57,11.20
2014,09,27,03,58,11.20
2014,09,27,03,59,11.20
2014,09,27,04,00,11.20
2014,09,27,04,01,11.20
2014,09,27,04,02,11.20
2014,09,27,04,03,11.20
2014,09,27,04,04,11.20
2014,09,27,04,05,11.20
2014,09,27,04,06,11.20
2014,09,27,04,07,11.20
2014,09,27,04,08,11.20
2014,09,27,04,09,11.20
2014,09,27,04,10,11.20
2014,09,27,04,11,11.20
2014,09,27,04,12,11.20
2014,09,27,04,13,11.20
2014,09,27,04,14,11.20
2014,09,27,04,15,11.20
2014,09,27,04,16,11.20
2014,09,27,04,17,11.20
2014,09,27,04,18,11.20
2014,09,27,04,19,11.20
2014,09,27,04,20,11.20
2014,09,27,04,21,11.20
2014,09,27,04,22,11.20
2014,09,27,04,23,11.20
2014,09,27,04,24,11.20
2014,09,27,04,25,11.20
2014,09,27,04,26,11.20
2014,09,27,04,27,11.20
2014,09,27,04,28,11.30
2014,09,27,04,29,11.30
2014,09,27,04,30,11.30
2014,09,27,04,31,11.30
2014,09,27,04,32,11.30
2014,09,27,04,33,11.30
2014,09,27,04,34,11.30
2014,09,27,04,35,11.30
2014,09,27,04,36,11.30
2014,09,27,04,37,11.30
2014,09,27,04,38,11.30
2014,09,27,04,39,11.30
2014,09,27,04,40,11.30
2014,09,27,04,41,11.20
2014,09,27,04,42,11.30
2014,09,27,04,43,11.30
2014,09,27,04,44,11.30
2014,09,27,04,45,11.30
2014,09,27,04,46,11.30
2014,09,27,04,47,11.30
2014,09,27,04,48,11.30
2014,09,27,04,49,11.30
2014,09,27,04,50,11.30
2014,09,27,04,51,11.30
2014,09,27,04,52,11.30
2014,09,27,04,53,11.30
2014,09,27,04,54,11.30
2014,09,27,04,55,11.30
2014,09,27,04,56,11.30
2014,09,27,04,57,11.30
2014,09,27,04,58,11.30
2014,09,27,04,59,11.30
2014,09,27,05,00,11.30
2014,09,27,05,01,11.20
2014,09,27,05,02,11.20
2014,09,27,05,03,11.20
2014,09,27,05,04,11.20
2014,09,27,05,05,11.20
2014,09,27,05,06,11.20
2014,09,27,05,07,11.20
2014,09,27,05,08,11.20
2014,09,27,05,09,11.20
2014,09,27,05,10,11.20
2014,09,27,05,11,11.20
2014,09,27,05,12,11.20
2014,09,27,05,13,11.20
2014,09,27,05,14,11.20
2014,09,27,05,15,11.20
2014,09,27,05,16,11.20
2014,09,27,05,17,11.20
2014,09,27,05,18,11.20
2014,09,27,05,19,11.20
2014,09,27,05,20,11.20
2014,09,27,05,21,11.20
2014,09,27,05,22,11.20
2014,09,27,05,23,11.20
2014,09,27,05,24,11.20
2014,09,27,05,25,11.20
2014,09,27,05,26,11.20
2014,09,27,05,27,11.20
2014,09,27,05,28,11.20
2014,09,27,05,29,11.20
2014,09,27,05,30,11.20
2014,09,27,05,31,11.20
2014,09,27,05,32,11.20
2014,09,27,05,33,11.20
2014,09,27,05,34,11.20
2014,09,27,05,35,11.20
2014,09,27,05,36,11.20
2014,09,27,05,37,11.20
2014,09,27,05,38,11.10
2014,09,27,05,39,11.10
2014,09,27,05,40,11.10
2014,09,27,05,41,11.10
2014,09,27,05,42,11.10
2014,09,27,05,43,11.10
2014,09,27,05,44,11.10
2014,09,27,05,45,11.10
2014,09,27,05,46,11.10
2014,09,27,05,47,11.10
2014,09,27,05,48,11.10
2014,09,27,05,49,11.10
2014,09,27,05,50,11.10
2014,09,27,05,51,11.10
2014,09,27,05,52,11.10
2014,09,27,05,53,11.10
2014,09,27,05,54,11.10
2014,09,27,05,55,11.10
2014,09,27,05,56,11.10
2014,09,27,05,57,11.10
2014,09,27,05,58,11.10
2014,09,27,05,59,11.10
2014,09,27,06,00,11.10
2014,09,27,06,01,11.10
2014,09,27,06,02,11.10
2014,09,27,06,03,11.10
2014,09,27,06,04,11.10
2014,09,27,06,05,11.10
2014,09,27,06,06,11.10
2014,09,27,06,07,11.10
2014,09,27,06,08,11.10
2014,09,27,06,09,11.10
2014,09,27,06,10,11.10
2014,09,27,06,11,11.10
2014,09,27,06,12,11.10
2014,09,27,06,13,11.10
2014,09,27,06,14,11.10
2014,09,27,06,15,11.10
2014,09,27,06,16,11.10
2014,09,27,06,17,11.10
2014,09,27,06,18,11.10
2014,09,27,06,19,11.10
2014,09,27,06,20,11.10
2014,09,27,06,21,11.10
2014,09,27,06,22,11.10
2014,09,27,06,23,11.10
2014,09,27,06,24,11.10
2014,09,27,06,25,11.10
2014,09,27,06,26,11.10
2014,09,27,06,27,11.10
2014,09,27,06,28,11.10
2014,09,27,06,29,11.10
2014,09,27,06,30,11.10
2014,09,27,06,31,11.10
2014,09,27,06,32,11.10
2014,09,27,06,33,11.10
2014,09,27,06,34,11.10
2014,09,27,06,35,11.10
2014,09,27,06,36,11.10
2014,09,27,06,37,11.10
2014,09,27,06,38,11.10
2014,09,27,06,39,11.10
2014,09,27,06,40,11.10
2014,09,27,06,41,11.10
2014,09,27,06,42,11.00
2014,09,27,06,43,11.00
2014,09,27,06,44,11.00
2014,09,27,06,45,11.00
2014,09,27,06,46,11.00
2014,09,27,06,47,11.00
2014,09,27,06,48,11.00
2014,09,27,06,49,11.00
2014,09,27,06,50,11.00
2014,09,27,06,51,11.00
2014,09,27,06,52,11.00
2014,09,27,06,53,11.00
2014,09,27,06,54,11.00
2014,09,27,06,55,11.00
2014,09,27,06,56,11.00
2014,09,27,06,57,11.00
2014,09,27,06,58,11.00
2014,09,27,06,59,11.00
2014,09,27,07,00,11.00
2014,09,27,07,01,11.00
2014,09,27,07,02,11.00
2014,09,27,07,03,10.90
2014,09,27,07,04,10.90
2014,09,27,07,05,10.90
2014,09,27,07,06,10.90
2014,09,27,07,07,10.90
2014,09,27,07,08,10.90
2014,09,27,07,09,10.90
2014,09,27,07,10,10.80
2014,09,27,07,11,10.80
2014,09,27,07,12,10.80
2014,09,27,07,13,10.80
2014,09,27,07,14,10.80
2014,09,27,07,15,10.80
2014,09,27,07,16,10.80
2014,09,27,07,17,10.80
2014,09,27,07,18,10.80
2014,09,27,07,19,10.80
2014,09,27,07,20,10.80
2014,09,27,07,21,10.70
2014,09,27,07,22,10.70
2014,09,27,07,23,10.70
2014,09,27,07,24,10.70
2014,09,27,07,25,10.70
2014,09,27,07,26,10.70
2014,09,27,07,27,10.70
2014,09,27,07,28,10.70
2014,09,27,07,29,10.70
2014,09,27,07,30,10.60
2014,09,27,07,31,10.60
2014,09,27,07,32,10.60
2014,09,27,07,33,10.60
2014,09,27,07,34,10.60
2014,09,27,07,35,10.60
2014,09,27,07,36,10.60
2014,09,27,07,37,10.60
2014,09,27,07,38,10.50
2014,09,27,07,39,10.50
2014,09,27,07,40,10.50
2014,09,27,07,41,10.50
2014,09,27,07,42,10.50
2014,09,27,07,43,10.50
2014,09,27,07,44,10.50
2014,09,27,07,45,10.50
2014,09,27,07,46,10.50
2014,09,27,07,47,10.50
2014,09,27,07,48,10.60
2014,09,27,07,49,10.60
2014,09,27,07,50,10.60
2014,09,27,07,51,10.60
2014,09,27,07,52,10.60
2014,09,27,07,53,10.60
2014,09,27,07,54,10.60
2014,09,27,07,55,10.60
2014,09,27,07,56,10.60
2014,09,27,07,57,10.70
2014,09,27,07,58,10.70
2014,09,27,07,59,10.70
2014,09,27,08,00,10.70
2014,09,27,08,01,10.70
2014,09,27,08,02,10.70
2014,09,27,08,03,10.70
2014,09,27,08,04,10.70
2014,09,27,08,05,10.80
2014,09,27,08,06,10.80
2014,09,27,08,07,10.80
2014,09,27,08,08,10.80
2014,09,27,08,09,10.80
2014,09,27,08,10,10.80
2014,09,27,08,11,10.80
2014,09,27,08,12,10.80
2014,09,27,08,13,10.80
2014,09,27,08,14,10.90
2014,09,27,08,15,10.90
2014,09,27,08,16,10.90
2014,09,27,08,17,10.90
2014,09,27,08,18,10.90
2014,09,27,08,19,10.90
2014,09,27,08,20,11.00
2014,09,27,08,21,11.00
2014,09,27,08,22,11.00
2014,09,27,08,23,11.10
2014,09,27,08,24,11.10
2014,09,27,08,25,11.10
2014,09,27,08,26,11.10
2014,09,27,08,27,11.20
2014,09,27,08,28,11.20
2014,09,27,08,29,11.20
2014,09,27,08,30,11.30
2014,09,27,08,31,11.30
2014,09,27,08,32,11.30
2014,09,27,08,33,11.30
2014,09,27,08,34,11.40
2014,09,27,08,35,11.40
2014,09,27,08,36,11.40
2014,09,27,08,37,11.50
2014,09,27,08,38,11.50
2014,09,27,08,39,11.50
2014,09,27,08,40,11.60
2014,09,27,08,41,11.60
2014,09,27,08,42,11.60
2014,09,27,08,43,11.60
2014,09,27,08,44,11.60
2014,09,27,08,45,11.60
2014,09,27,08,46,11.70
2014,09,27,08,47,11.70
2014,09,27,08,48,11.70
2014,09,27,08,49,11.70
2014,09,27,08,50,11.70
2014,09,27,08,51,11.70
2014,09,27,08,52,11.70
2014,09,27,08,53,11.70
2014,09,27,08,54,11.70
2014,09,27,08,55,11.80
2014,09,27,08,56,11.80
2014,09,27,08,57,11.80
2014,09,27,08,58,11.80
2014,09,27,08,59,11.80
2014,09,27,09,00,11.80
2014,09,27,09,01,11.90
2014,09,27,09,02,11.90
2014,09,27,09,03,11.90
2014,09,27,09,04,11.90
2014,09,27,09,05,12.00
2014,09,27,09,06,12.00
2014,09,27,09,07,12.00
2014,09,27,09,08,12.10
2014,09,27,09,09,12.10
2014,09,27,09,10,12.10
2014,09,27,09,11,12.20
2014,09,27,09,12,12.20
2014,09,27,09,13,12.20
2014,09,27,09,14,12.20
2014,09,27,09,15,12.20
2014,09,27,09,16,12.30
2014,09,27,09,17,12.30
2014,09,27,09,18,12.30
2014,09,27,09,19,12.30
2014,09,27,09,20,12.30
2014,09,27,09,21,12.40
2014,09,27,09,22,12.40
2014,09,27,09,23,12.40
2014,09,27,09,24,12.40
2014,09,27,09,25,12.40
2014,09,27,09,26,12.50
2014,09,27,09,27,12.50
2014,09,27,09,28,12.50
2014,09,27,09,29,12.60
2014,09,27,09,30,12.60
2014,09,27,09,31,12.60
2014,09,27,09,32,12.60
2014,09,27,09,33,12.60
2014,09,27,09,34,12.70
2014,09,27,09,35,12.70
2014,09,27,09,36,12.70
2014,09,27,09,37,12.70
2014,09,27,09,38,12.70
2014,09,27,09,39,12.70
2014,09,27,09,40,12.70
2014,09,27,09,41,12.80
2014,09,27,09,42,12.80
2014,09,27,09,43,12.80
2014,09,27,09,44,12.80
2014,09,27,09,45,12.80
2014,09,27,09,46,12.80
2014,09,27,09,47,12.80
2014,09,27,09,48,12.80
2014,09,27,09,49,12.90
2014,09,27,09,50,12.90
2014,09,27,09,51,12.90
2014,09,27,09,52,12.90
2014,09,27,09,53,12.90
2014,09,27,09,54,12.90
2014,09,27,09,55,12.90
2014,09,27,09,56,12.90
2014,09,27,09,57,13.00
2014,09,27,09,58,13.10
2014,09,27,09,59,13.10
2014,09,27,10,00,13.20
2014,09,27,10,01,13.30
2014,09,27,10,02,13.30
2014,09,27,10,03,13.30
2014,09,27,10,04,13.30
2014,09,27,10,05,13.40
2014,09,27,10,06,13.40
2014,09,27,10,07,13.40
2014,09,27,10,08,13.40
2014,09,27,10,09,13.50
2014,09,27,10,10,13.50
2014,09,27,10,11,13.50
2014,09,27,10,12,13.50
2014,09,27,10,13,13.50
2014,09,27,10,14,13.50
2014,09,27,10,15,13.50
2014,09,27,10,16,13.60
2014,09,27,10,17,13.60
2014,09,27,10,18,13.60
2014,09,27,10,19,13.60
2014,09,27,10,20,13.60
2014,09,27,10,21,13.60
2014,09,27,10,22,13.50
2014,09,27,10,23,13.50
2014,09,27,10,24,13.50
2014,09,27,10,25,13.50
2014,09,27,10,26,13.40
2014,09,27,10,27,13.40
2014,09,27,10,28,13.40
2014,09,27,10,29,13.40
2014,09,27,10,30,13.40
2014,09,27,10,31,13.40
2014,09,27,10,32,13.40
2014,09,27,10,33,13.40
2014,09,27,10,34,13.30
2014,09,27,10,35,13.30
2014,09,27,10,36,13.30
2014,09,27,10,37,13.30
2014,09,27,10,38,13.30
2014,09,27,10,39,13.30
2014,09,27,10,40,13.30
2014,09,27,10,41,13.30
2014,09,27,10,42,13.30
2014,09,27,10,43,13.40
2014,09,27,10,44,13.40
2014,09,27,10,45,13.40
2014,09,27,10,46,13.40
2014,09,27,10,47,13.40
2014,09,27,10,48,13.40
2014,09,27,10,49,13.40
2014,09,27,10,50,13.40
2014,09,27,10,51,13.40
2014,09,27,10,52,13.40
2014,09,27,10,53,13.50
2014,09,27,10,54,13.50
2014,09,27,10,55,13.40
2014,09,27,10,56,13.50
2014,09,27,10,57,13.50
2014,09,27,10,58,13.50
2014,09,27,10,59,13.50
2014,09,27,11,00,13.50
2014,09,27,11,01,13.50
2014,09,27,11,02,13.50
2014,09,27,11,03,13.50
2014,09,27,11,04,13.50
2014,09,27,11,05,13.50
2014,09,27,11,06,13.60
2014,09,27,11,07,13.60
2014,09,27,11,08,13.60
2014,09,27,11,09,13.60
2014,09,27,11,10,13.70
2014,09,27,11,11,13.70
2014,09,27,11,12,13.70
2014,09,27,11,13,13.80
2014,09,27,11,14,13.80
2014,09,27,11,15,13.90
2014,09,27,11,16,13.90
2014,09,27,11,17,13.90
2014,09,27,11,18,14.00
2014,09,27,11,19,14.10
2014,09,27,11,20,14.10
2014,09,27,11,21,14.20
2014,09,27,11,22,14.20
2014,09,27,11,23,14.20
2014,09,27,11,24,14.20
2014,09,27,11,25,14.20
2014,09,27,11,26,14.20
2014,09,27,11,27,14.30
2014,09,27,11,28,14.40
2014,09,27,11,29,14.40
2014,09,27,11,30,14.50
2014,09,27,11,31,14.50
2014,09,27,11,32,14.60
2014,09,27,11,33,14.50
2014,09,27,11,34,14.50
2014,09,27,11,35,14.50
2014,09,27,11,36,14.50
2014,09,27,11,37,14.50
2014,09,27,11,38,14.50
2014,09,27,11,39,14.50
2014,09,27,11,40,14.40
2014,09,27,11,41,14.40
2014,09,27,11,42,14.40
2014,09,27,11,43,14.40
2014,09,27,11,44,14.50
2014,09,27,11,45,14.50
2014,09,27,11,46,14.50
2014,09,27,11,47,14.60
2014,09,27,11,48,14.60
2014,09,27,11,49,14.70
2014,09,27,11,50,14.80
2014,09,27,11,51,14.90
2014,09,27,11,52,14.90
2014,09,27,11,53,15.00
2014,09,27,11,54,15.10
2014,09,27,11,55,15.00
2014,09,27,11,56,15.00
2014,09,27,11,57,14.90
2014,09,27,11,58,14.90
2014,09,27,11,59,14.90
2014,09,27,12,00,14.80
2014,09,27,12,01,14.80
2014,09,27,12,02,14.80
2014,09,27,12,03,14.80
2014,09,27,12,04,14.80
2014,09,27,12,05,14.80
2014,09,27,12,06,14.80
2014,09,27,12,07,14.80
2014,09,27,12,08,14.80
2014,09,27,12,09,14.80
2014,09,27,12,10,14.80
2014,09,27,12,11,14.80
2014,09,27,12,12,14.80
2014,09,27,12,13,14.80
2014,09,27,12,14,14.80
2014,09,27,12,15,14.80
2014,09,27,12,16,14.90
2014,09,27,12,17,14.90
2014,09,27,12,18,14.90
2014,09,27,12,19,15.00
2014,09,27,12,20,15.10
2014,09,27,12,21,15.10
2014,09,27,12,22,15.20
2014,09,27,12,23,15.30
2014,09,27,12,24,15.50
2014,09,27,12,25,15.60
2014,09,27,12,26,15.70
2014,09,27,12,27,15.90
2014,09,27,12,28,16.10
2014,09,27,12,29,16.20
2014,09,27,12,30,16.30
2014,09,27,12,31,16.50
2014,09,27,12,32,16.60
2014,09,27,12,33,16.80
2014,09,27,12,34,16.90
2014,09,27,12,35,17.10
2014,09,27,12,36,17.20
2014,09,27,12,37,17.20
2014,09,27,12,38,17.30
2014,09,27,12,39,17.30
2014,09,27,12,40,17.30
2014,09,27,12,41,17.30
2014,09,27,12,42,17.30
2014,09,27,12,43,17.30
2014,09,27,12,44,17.20
2014,09,27,12,45,17.20
2014,09,27,12,46,17.10
2014,09,27,12,47,17.10
2014,09,27,12,48,17.20
2014,09,27,12,49,17.20
2014,09,27,12,50,17.30
2014,09,27,12,51,17.40
2014,09,27,12,52,17.40
2014,09,27,12,53,17.50
2014,09,27,12,54,17.60
2014,09,27,12,55,17.70
2014,09,27,12,56,17.80
2014,09,27,12,57,17.90
2014,09,27,12,58,18.00
2014,09,27,12,59,18.10
2014,09,27,13,00,18.20
2014,09,27,13,01,18.20
2014,09,27,13,02,18.30
2014,09,27,13,03,18.30
2014,09,27,13,04,18.40
2014,09,27,13,05,18.40
2014,09,27,13,06,18.50
2014,09,27,13,07,18.50
2014,09,27,13,08,18.60
2014,09,27,13,09,18.60
2014,09,27,13,10,18.70
2014,09,27,13,11,18.70
2014,09,27,13,12,18.70
2014,09,27,13,13,18.70
2014,09,27,13,14,18.80
2014,09,27,13,15,18.80
2014,09,27,13,16,18.80
2014,09,27,13,17,18.80
2014,09,27,13,18,18.80
2014,09,27,13,19,18.90
2014,09,27,13,20,18.90
2014,09,27,13,21,18.90
2014,09,27,13,22,18.90
2014,09,27,13,23,18.90
2014,09,27,13,24,18.90
2014,09,27,13,25,19.00
2014,09,27,13,26,19.00
2014,09,27,13,27,19.00
2014,09,27,13,28,19.10
2014,09,27,13,29,19.10
2014,09,27,13,30,19.20
2014,09,27,13,31,19.20
2014,09,27,13,32,19.20
2014,09,27,13,33,19.10
2014,09,27,13,34,18.80
2014,09,27,13,35,18.60
2014,09,27,13,36,18.40
2014,09,27,13,37,18.20
2014,09,27,13,38,18.10
2014,09,27,13,39,18.10
2014,09,27,13,40,18.10
2014,09,27,13,41,18.10
2014,09,27,13,42,18.10
2014,09,27,13,43,18.10
2014,09,27,13,44,18.10
2014,09,27,13,45,18.00
2014,09,27,13,46,17.90
2014,09,27,13,47,17.90
2014,09,27,13,48,17.90
2014,09,27,13,49,17.90
2014,09,27,13,50,17.80
2014,09,27,13,51,17.80
2014,09,27,13,52,17.80
2014,09,27,13,53,17.70
2014,09,27,13,54,17.80
2014,09,27,13,55,17.80
2014,09,27,13,56,17.70
2014,09,27,13,57,17.70
2014,09,27,13,58,17.70
2014,09,27,13,59,17.60
2014,09,27,14,00,17.50
2014,09,27,14,01,17.40
2014,09,27,14,02,17.30
2014,09,27,14,03,17.30
2014,09,27,14,04,17.40
2014,09,27,14,05,17.40
2014,09,27,14,06,17.40
2014,09,27,14,07,17.40
2014,09,27,14,08,17.30
2014,09,27,14,09,17.30
2014,09,27,14,10,17.30
2014,09,27,14,11,17.20
2014,09,27,14,12,17.20
2014,09,27,14,13,17.10
2014,09,27,14,14,17.10
2014,09,27,14,15,17.00
2014,09,27,14,16,17.00
2014,09,27,14,17,16.90
2014,09,27,14,18,16.90
2014,09,27,14,19,16.90
2014,09,27,14,20,16.90
2014,09,27,14,21,16.80
2014,09,27,14,22,16.80
2014,09,27,14,23,16.80
2014,09,27,14,24,16.70
2014,09,27,14,25,16.70
2014,09,27,14,26,16.70
2014,09,27,14,27,16.70
2014,09,27,14,28,16.80
2014,09,27,14,29,16.80
2014,09,27,14,30,16.70
2014,09,27,14,31,16.70
2014,09,27,14,32,16.60
2014,09,27,14,33,16.60
2014,09,27,14,34,16.60
2014,09,27,14,35,16.70
2014,09,27,14,36,16.70
2014,09,27,14,37,16.70
2014,09,27,14,38,16.70
2014,09,27,14,39,16.70
2014,09,27,14,40,16.70
2014,09,27,14,41,16.70
2014,09,27,14,42,16.70
2014,09,27,14,43,16.70
2014,09,27,14,44,16.70
2014,09,27,14,45,16.70
2014,09,27,14,46,16.70
2014,09,27,14,47,16.70
2014,09,27,14,48,16.70
2014,09,27,14,49,16.70
2014,09,27,14,50,16.70
2014,09,27,14,51,16.70
2014,09,27,14,52,16.70
2014,09,27,14,53,16.70
2014,09,27,14,54,16.70
2014,09,27,14,55,16.70
2014,09,27,14,56,16.70
2014,09,27,14,57,16.70
2014,09,27,14,58,16.70
2014,09,27,14,59,16.70
2014,09,27,15,00,16.70
2014,09,27,15,01,16.70
2014,09,27,15,02,16.80
2014,09,27,15,03,16.80
2014,09,27,15,04,16.80
2014,09,27,15,05,16.90
2014,09,27,15,06,16.90
2014,09,27,15,07,16.90
2014,09,27,15,08,16.90
2014,09,27,15,09,16.80
2014,09,27,15,10,16.80
2014,09,27,15,11,16.70
2014,09,27,15,12,16.60
2014,09,27,15,13,16.50
2014,09,27,15,14,16.50
2014,09,27,15,15,16.40
2014,09,27,15,16,16.40
2014,09,27,15,17,16.40
2014,09,27,15,18,16.40
2014,09,27,15,19,16.40
2014,09,27,15,20,16.40
2014,09,27,15,21,16.30
2014,09,27,15,22,16.30
2014,09,27,15,23,16.30
2014,09,27,15,24,16.30
2014,09,27,15,25,16.30
2014,09,27,15,26,16.20
2014,09,27,15,27,16.20
2014,09,27,15,28,16.20
2014,09,27,15,29,16.20
2014,09,27,15,30,16.20
2014,09,27,15,31,16.20
2014,09,27,15,32,16.20
2014,09,27,15,33,16.20
2014,09,27,15,34,16.20
2014,09,27,15,35,16.20
2014,09,27,15,36,16.20
2014,09,27,15,37,16.20
2014,09,27,15,38,16.20
2014,09,27,15,39,16.20
2014,09,27,15,40,16.20
2014,09,27,15,41,16.20
2014,09,27,15,42,16.20
2014,09,27,15,43,16.20
2014,09,27,15,44,16.20
2014,09,27,15,45,16.30
2014,09,27,15,46,16.30
2014,09,27,15,47,16.30
2014,09,27,15,48,16.40
2014,09,27,15,49,16.40
2014,09,27,15,50,16.40
2014,09,27,15,51,16.40
2014,09,27,15,52,16.40
2014,09,27,15,53,16.40
2014,09,27,15,54,16.40
2014,09,27,15,55,16.40
2014,09,27,15,56,16.40
2014,09,27,15,57,16.30
2014,09,27,15,58,16.30
2014,09,27,15,59,16.30
2014,09,27,16,00,16.30
2014,09,27,16,01,16.30
2014,09,27,16,02,16.30
2014,09,27,16,03,16.30
2014,09,27,16,04,16.30
2014,09,27,16,05,16.30
2014,09,27,16,06,16.30
2014,09,27,16,07,16.30
2014,09,27,16,08,16.40
2014,09,27,16,09,16.30
2014,09,27,16,10,16.40
2014,09,27,16,11,16.40
2014,09,27,16,12,16.40
2014,09,27,16,13,16.40
2014,09,27,16,14,16.40
2014,09,27,16,15,16.40
2014,09,27,16,16,16.50
2014,09,27,16,17,16.60
2014,09,27,16,18,16.60
2014,09,27,16,19,16.60
2014,09,27,16,20,16.60
2014,09,27,16,21,16.70
2014,09,27,16,22,16.70
2014,09,27,16,23,16.80
2014,09,27,16,24,16.80
2014,09,27,16,25,16.80
2014,09,27,16,26,16.80
2014,09,27,16,27,16.80
2014,09,27,16,28,16.80
2014,09,27,16,29,16.90
2014,09,27,16,30,16.90
2014,09,27,16,31,16.90
2014,09,27,16,32,16.90
2014,09,27,16,33,16.90
2014,09,27,16,34,16.90
2014,09,27,16,35,16.90
2014,09,27,16,36,16.90
2014,09,27,16,37,16.90
2014,09,27,16,38,16.90
2014,09,27,16,39,17.00
2014,09,27,16,40,17.00
2014,09,27,16,41,17.10
2014,09,27,16,42,17.10
2014,09,27,16,43,17.10
2014,09,27,16,44,17.10
2014,09,27,16,45,17.10
2014,09,27,16,46,17.10
2014,09,27,16,47,17.10
2014,09,27,16,48,17.10
2014,09,27,16,49,17.20
2014,09,27,16,50,17.30
2014,09,27,16,51,17.20
2014,09,27,16,52,17.20
2014,09,27,16,53,17.20
2014,09,27,16,54,17.30
2014,09,27,16,55,17.30
2014,09,27,16,56,17.30
2014,09,27,16,57,17.30
2014,09,27,16,58,17.30
2014,09,27,16,59,17.30
2014,09,27,17,00,17.30
2014,09,27,17,01,17.30
2014,09,27,17,02,17.30
2014,09,27,17,03,17.30
2014,09,27,17,04,17.30
2014,09,27,17,05,17.20
2014,09,27,17,06,17.20
2014,09,27,17,07,17.10
2014,09,27,17,08,17.10
2014,09,27,17,09,17.10
2014,09,27,17,10,17.00
2014,09,27,17,11,17.00
2014,09,27,17,12,16.90
2014,09,27,17,13,16.90
2014,09,27,17,14,16.80
2014,09,27,17,15,16.80
2014,09,27,17,16,16.70
2014,09,27,17,17,16.70
2014,09,27,17,18,16.70
2014,09,27,17,19,16.70